User: anonymous   Login
Location: Unspecified
(0.0000°N, 0.0000°E)
Time: 20:37:45
(UTC+00:00)
Language:

ARGOS - Orbit

View from above orbital plane
View from above orbital plane
View from above satellite
View from above satellite

Ground track
Ground track

The orbit data is extracted from the following two-line orbital elements,

1 25634U 99008A   18052.75285855 -.00000025 +00000-0 +83089-5 0  9998
2 25634 098.5843 113.3873 0009816 201.9627 158.1130 14.19327972983392
Epoch (UTC): 21 February 2018 18:04:06
Eccentricity: 0.0009816
inclination: 98.5843°
perigee height: 820 km
apogee height: 835 km
right ascension of ascending node: 113.3873°
argument of perigee: 201.9627°
revolutions per day: 14.19327972
mean anomaly at epoch: 158.1130°
orbit number at epoch: 98339

The dashed part of the orbit path shows where the satellite is in the earth's shadow,  

DLR